Location: *
(2.5500°S, 65.9667°W)
Time: 03:30:12
(UTC+00:00)

Okean O Rocket - Pass Details

Date: 02 June 2022
Orbit: 623 x 643 km, 98.2° (Epoch: 04 July)

Event Time Altitude Azimuth Distance (km) Brightness Sun altitude
Exits shadow 23:52:21 24° 186° (S) 1,311 3.0 -21.8°
Maximum altitude 23:54:51 59° 258° (WSW) 719 2.0 -22.4°
Drops below altitude 10° 23:59:06 10° 337° (NNW) 1,983 4.7 -23.4°
Sets 00:01:18 0° 341° (NNW) 2,885 5.6 -23.9°
